ABOUT US
vACC Philippines is a recognized member of the VATSIM network. We are dedicated to enchancing the online experience of both local and international virtual pilots. Mandated to provide professional and realistic air traffic operations.

vACC Philippines aims to provide the most realistic air traffic system simulation service that is close to the real thing as possible when flying on the VATSIM network.


METARS

RPLL 260300Z 28008KT 240V310 9000 FEW023 BKN250 30/25 Q1008 NOSIG RMK A2977


RPVM 260300Z 22010KT 9999 FEW018CB BKN100 31/24 Q1009 RMK A2980 CB E/SW/NW


RPMD 260300Z 18004KT 9999 FEW016 BKN090 BKN290 29/25 Q1009 RMK A2980



AIRFIELDS COVERED


Manila (RPLL)

Subic Bay (RPLB)

Mactan-Cebu (RPVM)

Clark (RPLC)

Laoag (RPLI)


Davao (RPMD)


Bacolod (RPVB)


Zamboanga (RPMZ)


General Santos (RPMR)


Iloilo (RPVI)


Kalibo (RPVK)


Legazpi (RPLP)


Puerto Princesa (RPVP)